Date String (YYYY-MM-DD hh:mm:ss) UTC,Instrument flags,Ambient pressure (hPa),Sample flow (lpm),Bypass flow (lpm),Sample temperature (°C),Ambient temperature (°C),ASC tube jacket temperature (°C),LED temperature (°C),Box temperature (°C),Sample RH (%),Span deviation,Mass concentration (μg/m³),Mass concentration (μg/m³),Mass concentration (μg/m³)
DateTimeUTC,F1_M11,P_M11,Q1_M11,Q2_M11,T1_M11,T2_M11,T3_M11,T4_M11,T5_M11,U1_M11,ZSPAN_M11,X0_M11,X2_M11,X1_M11
2023-01-11 13:00:00,,0816.1,5.00,0.00,22.3,20.7,00.0,31.2,24.0,19.4,0000.0,0004.95,0003.31,0003.17
2023-01-11 13:01:00,,0816.0,5.01,0.00,22.2,20.7,00.0,31.2,24.0,19.5,0000.0,0004.49,0003.28,0003.15
2023-01-11 13:02:00,,0816.0,5.00,0.00,22.2,20.7,00.0,31.2,24.0,19.6,0000.0,0004.30,0003.26,0003.13
2023-01-11 13:03:00,,0816.1,4.99,0.00,22.2,20.8,00.0,31.2,23.9,19.6,0000.0,0004.20,0003.23,0003.11
2023-01-11 13:04:00,,0816.1,5.00,0.00,22.2,20.8,00.0,31.1,23.9,19.6,0000.0,0004.56,0003.20,0003.07
2023-01-11 13:05:00,,0816.1,4.99,0.00,22.2,20.7,00.0,31.1,23.9,19.6,0000.0,0004.49,0003.18,0003.05
2023-01-11 13:06:00,,0816.1,5.00,0.00,22.2,20.6,00.0,31.1,23.9,19.6,0000.0,0004.63,0003.17,0003.04
2023-01-11 13:07:00,,0815.9,5.01,0.00,22.1,20.5,00.0,31.1,23.8,19.7,0000.0,0004.62,0003.16,0003.04
2023-01-11 13:08:00,,0816.1,5.00,0.00,22.1,20.4,00.0,31.1,23.8,19.8,0000.0,0004.45,0003.13,0003.03
2023-01-11 13:09:00,,0816.1,5.00,0.00,22.1,20.3,00.0,31.1,23.7,19.8,0000.0,0004.46,0003.13,0003.03
2023-01-11 13:10:00,,0815.9,5.00,0.00,22.0,20.3,00.0,31.1,23.7,19.9,0000.0,0004.57,0003.16,0003.05
2023-01-11 13:11:00,,0815.6,5.00,0.00,22.0,20.3,00.0,31.0,23.7,19.9,0000.0,0004.59,0003.16,0003.06
2023-01-11 13:12:00,,0815.6,5.00,0.00,22.0,20.2,00.0,31.0,23.7,20.0,0000.0,0004.66,0003.16,0003.05
2023-01-11 13:13:00,,0815.6,5.00,0.00,22.0,20.7,00.0,31.0,23.8,20.0,0000.0,0004.67,0003.16,0003.04
2023-01-11 13:14:00,,0815.7,5.00,0.00,22.1,21.8,00.0,30.9,24.0,19.9,0000.0,0004.68,0003.17,0003.06
2023-01-11 13:15:00,,0815.6,4.99,0.00,22.2,22.7,00.0,31.0,24.3,19.8,0000.0,0004.18,0003.18,0003.07
2023-01-11 13:16:00,,0815.7,4.99,0.00,22.3,22.6,00.0,31.0,24.3,19.7,0000.0,0004.13,0003.18,0003.07
2023-01-11 13:17:00,,0815.7,4.99,0.00,22.3,22.1,00.0,31.1,24.2,19.7,0000.0,0003.97,0003.18,0003.07
2023-01-11 13:18:00,,0815.6,5.00,0.00,22.3,21.7,00.0,31.1,24.1,19.7,0000.0,0003.88,0003.18,0003.07
2023-01-11 13:19:00,,0815.7,5.00,0.00,22.3,21.4,00.0,31.1,24.1,19.7,0000.0,0003.93,0003.19,0003.08
2023-01-11 13:20:00,,0815.6,4.99,0.00,22.3,21.2,00.0,31.1,24.0,19.7,0000.0,0003.94,0003.18,0003.06
2023-01-11 13:21:00,,0816.1,4.98,0.00,22.3,21.0,00.0,31.1,24.0,19.8,0000.0,0003.92,0003.17,0003.06
2023-01-11 13:22:00,,0816.1,4.99,0.00,22.2,20.8,00.0,31.1,23.9,19.8,0000.0,0003.91,0003.18,0003.08
2023-01-11 13:23:00,,0815.9,5.01,0.00,22.2,20.7,00.0,31.1,23.9,19.8,0000.0,0003.82,0003.18,0003.10
2023-01-11 13:24:00,,0815.6,4.99,0.00,22.2,20.6,00.0,31.1,23.8,19.8,0000.0,0004.29,0003.20,0003.12
2023-01-11 13:25:00,,0815.8,4.99,0.00,22.2,20.5,00.0,31.1,23.8,19.9,0000.0,0004.41,0003.21,0003.14
2023-01-11 13:26:00,,0815.8,5.00,0.00,22.1,20.4,00.0,31.1,23.8,19.9,0000.0,0004.43,0003.22,0003.15
2023-01-11 13:27:00,,0815.7,5.02,0.00,22.1,20.4,00.0,31.1,23.8,20.0,0000.0,0004.44,0003.22,0003.15
2023-01-11 13:28:00,,0815.6,5.01,0.00,22.1,20.4,00.0,31.1,23.8,20.0,0000.0,0004.46,0003.23,0003.16
2023-01-11 13:29:00,,0815.7,5.00,0.00,22.1,20.4,00.0,31.0,23.7,20.0,0000.0,0004.49,0003.24,0003.16
2023-01-11 13:30:00,,0815.7,4.99,0.00,22.0,20.4,00.0,31.0,23.7,20.1,0000.0,0004.54,0003.24,0003.17
2023-01-11 13:31:00,,0815.6,5.02,0.00,22.0,20.4,00.0,31.0,23.7,20.1,0000.0,0004.90,0003.25,0003.18
2023-01-11 13:32:00,,0815.6,4.99,0.00,22.0,20.4,00.0,31.0,23.7,20.1,0000.0,0004.87,0003.25,0003.18
2023-01-11 13:33:00,,0815.7,5.00,0.00,22.0,20.4,00.0,31.0,23.7,20.1,0000.0,0004.88,0003.25,0003.17
2023-01-11 13:34:00,,0815.7,5.00,0.00,22.0,20.3,00.0,31.0,23.6,20.2,0000.0,0004.84,0003.23,0003.16
2023-01-11 13:35:00,,0815.7,5.00,0.00,22.0,20.3,00.0,31.0,23.7,20.2,0000.0,0004.56,0003.23,0003.15
2023-01-11 13:36:00,,0815.7,5.01,0.00,21.9,20.3,00.0,30.9,23.6,20.3,0000.0,0004.51,0003.22,0003.14
2023-01-11 13:37:00,,0815.7,5.00,0.00,21.9,20.2,00.0,30.9,23.6,20.3,0000.0,0004.53,0003.22,0003.13
2023-01-11 13:38:00,,0815.8,5.00,0.00,21.9,20.2,00.0,30.9,23.6,20.3,0000.0,0004.64,0003.23,0003.13
2023-01-11 13:39:00,,0815.9,5.01,0.00,21.9,20.2,00.0,30.9,23.5,20.4,0000.0,0004.64,0003.22,0003.12
2023-01-11 13:40:00,,0815.8,5.00,0.00,21.9,20.5,00.0,30.8,23.6,20.4,0000.0,0004.64,0003.21,0003.10
2023-01-11 13:41:00,,0815.8,5.02,0.00,22.0,21.6,00.0,30.8,23.8,20.3,0000.0,0004.51,0003.19,0003.08
2023-01-11 13:42:00,,0815.8,5.00,0.00,22.1,22.6,00.0,30.8,24.1,20.2,0000.0,0004.10,0003.17,0003.06
2023-01-11 13:43:00,,0815.8,4.99,0.00,22.2,22.7,00.0,30.9,24.2,20.1,0000.0,0004.08,0003.15,0003.05
2023-01-11 13:44:00,,0815.8,4.99,0.00,22.2,22.2,00.0,30.9,24.2,20.1,0000.0,0004.05,0003.14,0003.05
2023-01-11 13:45:00,,0815.8,5.01,0.00,22.2,21.8,00.0,31.0,24.1,20.1,0000.0,0004.03,0003.13,0003.03
2023-01-11 13:46:00,,0815.8,5.00,0.00,22.2,21.5,00.0,31.0,24.1,20.1,0000.0,0003.83,0003.12,0003.03
2023-01-11 13:47:00,,0815.8,5.00,0.00,22.2,21.3,00.0,31.0,24.0,20.1,0000.0,0003.70,0003.12,0003.03
2023-01-11 13:48:00,,0815.8,5.00,0.00,22.2,21.1,00.0,31.0,24.0,20.1,0000.0,0003.71,0003.10,0003.01
2023-01-11 13:49:00,,0815.8,5.00,0.00,22.2,21.0,00.0,31.0,24.0,20.1,0000.0,0003.62,0003.07,0002.99
2023-01-11 13:50:00,,0815.8,5.01,0.00,22.2,20.9,00.0,31.0,24.0,20.1,0000.0,0003.60,0003.06,0002.97
2023-01-11 13:51:00,,0815.8,5.02,0.00,22.2,20.9,00.0,31.0,24.0,20.2,0000.0,0003.56,0003.04,0002.95
2023-01-11 13:52:00,,0815.8,5.02,0.00,22.2,20.8,00.0,31.0,23.9,20.2,0000.0,0003.56,0003.03,0002.94
2023-01-11 13:53:00,,0815.8,4.98,0.00,22.2,20.8,00.0,31.0,23.9,20.1,0000.0,0003.55,0003.01,0002.92
2023-01-11 13:54:00,,0815.8,5.00,0.00,22.2,20.8,00.0,31.0,23.9,20.1,0000.0,0003.56,0003.02,0002.91
2023-01-11 13:55:00,,0815.8,4.99,0.00,22.2,20.8,00.0,31.0,23.9,20.1,0000.0,0003.56,0003.01,0002.89
2023-01-11 13:56:00,,0815.8,4.99,0.00,22.2,20.7,00.0,31.0,23.9,20.2,0000.0,0003.60,0003.01,0002.87
2023-01-11 13:57:00,,0815.9,5.01,0.00,22.1,20.7,00.0,31.0,23.9,20.1,0000.0,0003.57,0002.98,0002.84
2023-01-11 13:58:00,,0815.8,5.01,0.00,22.1,20.7,00.0,31.0,23.9,20.1,0000.0,0003.58,0002.96,0002.81
2023-01-11 13:59:00,,0815.8,5.00,0.00,22.1,20.7,00.0,31.0,23.9,20.1,0000.0,0003.52,0002.93,0002.79
